Temperature
18 18 18 18 18 18 18 18 18 18 18 18 18 18 18 18 18 18 18 18 18 18 18 18 18 18 17 17 17 17 17 17 17 17 17 17 16 16 16 16 16 16 16
18 18 18 18 18 18 18 18 18 18 18 18 18 18 18 18 18 18 18 18 18 18 18 18 18 18 17 17 17 17 17 17 17 17 17 17 17 16 16 16 16 16 16
18 18 18 18 18 18 18 18 18 18 18 18 18 18 18 18 18 18 18 18 18 18 18 18 18 18 17 17 17 17 17 17 17 17 17 17 17 17 16 16 16 16 16
18 18 18 18 18 18 18 18 18 18 18 18 18 18 18 18 18 18 18 18 18 18 18 18 18 18 18 17 17 17 17 17 17 17 17 17 17 17 17 16 16 16 16
18 18 18 18 18 18 18 18 18 18 18 18 18 18 18 18 18 18 18 18 18 18 18 18 18 18 18 17 17 17 17 17 17 17 17 17 17 17 17 17 16 16 16
18 18 18 18 18 18 18 18 18 18 18 18 18 18 18 18 18 18 18 18 18 18 18 18 18 18 17 17 17 17 17 17 17 17 17 17 17 17 17 17 16 16 16
18 18 18 18 18 18 18 18 18 18 18 18 18 18 18 18 18 18 18 18 18 18 18 18 18 17 17 17 17 17 17 17 17 17 17 17 17 17 16 16 16 16 16
18 19 18 18 18 18 18 18 18 18 18 18 18 18 18 18 18 18 18 18 18 18 18 18 17 17 17 17 17 17 17 17 17 17 17 17 17 17 16 16 16 16 16
19 19 19 18 18 18 18 18 18 18 18 18 18 18 18 18 18 18 18 18 18 18 18 18 18 17 17 17 17 17 17 17 17 17 17 17 17 17 17 16 16 16 16
19 19 18 18 18 18 18 18 18 18 18 18 18 18 18 18 18 18 18 18 18 18 18 18 18 18 17 17 17 17 17 17 17 17 17 17 17 17 16 16 16 16 16
19 19 18 18 18 18 18 18 18 18 18 18 18 18 18 18 18 18 18 18 18 18 18 18 18 18 18 17 17 17 17 17 17 17 17 17 16 16 16 16 16 16 16
19 19 18 18 18 18 18 18 18 18 18 18 18 18 18 18 18 18 18 18 18 18 18 18 18 18 18 17 17 17 17 17 17 17 17 17 16 16 16 16 16 16 16
19 18 18 18 18 18 18 18 18 18 18 18 18 18 18 18 18 18 18 17 17 18 18 18 18 18 18 17 17 17 17 17 17 17 17 17 17 16 16 16 16 16 16
19 19 19 19 18 18 18 18 18 18 18 18 18 18 18 18 18 17 17 17 17 17 17 17 18 18 18 17 17 17 17 17 17 17 17 17 16 16 16 16 16 16 16
19 19 18 18 18 18 18 18 18 18 17 18 17 18 18 18 17 17 17 17 17 17 17 17 17 17 17 17 17 17 17 17 17 17 17 16 16 16 16 16 16 16 15
19 19 18 18 18 18 18 18 18 17 17 17 17 17 17 17 17 17 17 17 17 17 17 17 17 17 17 17 17 17 17 17 17 17 17 16 16 16 16 16 16 16 15
18 18 18 18 18 18 17 17 17 17 17 17 17 17 17 17 17 17 17 17 17 17 17 17 17 17 17 17 17 17 17 16 16 16 16 16 16 16 16 16 16 16 15
18 18 18 18 17 17 17 17 17 17 17 16 16 16 16 17 17 17 17 17 16 16 16 16 16 16 16 16 16 16 16 16 16 16 16 16 16 16 16 16 16 15 15
18 18 17 17 17 17 17 17 17 17 17 17 16 16 16 16 17 17 17 16 16 16 16 16 16 16 16 16 16 16 16 16 16 16 16 16 16 16 16 15 15 15 15
18 17 17 17 17 17 17 17 17 17 16 16 16 16 16 16 16 16 16 16 16 16 16 16 16 16 16 16 16 15 15 15 15 15 15 15 15 15 15 15 15 15 15
17 17 17 17 17 17 17 17 16 16 16 16 16 16 16 16 16 16 15 16 15 15 15 15 15 15 15 15 15 15 15 15 15 15 15 15 15 15 15 15 15 15 14
17 17 17 17 16 16 16 16 16 16 16 16 16 16 16 15 15 15 15 15 15 15 15 15 15 15 15 15 15 15 14 14 14 15 14 15 14 15 15 15 14 14 14
17 17 17 16 16 16 16 16 16 16 16 16 16 15 15 15 15 15 15 15 15 15 15 15 15 15 15 15 15 14 14 14 14 14 14 14 14 14 14 14 14 14 14
16 16 16 16 16 16 16 16 16 16 15 15 15 15 15 15 15 15 15 15 15 15 15 15 14 14 14 14 14 14 14 14 14 14 14 13 13 13 14 14 14 14 13
16 16 16 16 15 15 15 15 15 15 15 15 15 14 15 15 15 14 14 14 14 14 14 14 14 14 14 14 14 14 14 13 13 13 13 13 13 13 13 13 13 13 13
16 16 15 15 15 15 15 15 15 14 14 14 14 14 14 14 14 14 14 14 14 14 14 14 14 14 14 14 14 14 13 13 13 13 13 13 13 12 12 12 13 13 13
Wind_Speed
4 4 3 4 5 5 5 3 3 3 2 2 2 2 1 1 2 7 11 15 15 14 13 12 12 11 11 10 10 10 10 9 9 9 9 9 9 9 8 8 8 7 7
4 3 3 2 2 4 4 3 3 3 2 1 1 1 2 3 3 5 9 12 14 14 14 13 12 12 11 11 11 10 10 9 9 9 9 9 9 9 9 9 9 8 8
5 3 3 3 2 3 3 2 2 2 2 2 2 2 2 3 4 4 7 9 11 13 14 13 13 12 12 12 11 11 10 10 10 10 10 9 9 10 10 9 9 9 9
5 3 3 3 3 3 3 2 2 2 1 1 1 1 1 2 4 6 7 8 10 10 13 15 14 13 13 13 12 12 12 11 11 10 10 10 10 11 11 10 10 9 9
6 4 2 2 3 2 2 3 3 2 1 1 1 2 2 2 2 4 4 6 9 10 10 14 15 14 13 13 13 13 12 12 12 11 11 11 11 11 11 11 11 10 9
7 4 3 2 2 1 1 1 1 1 1 2 2 1 1 2 2 3 3 4 6 9 10 10 13 13 14 14 14 14 13 13 12 12 11 11 11 11 11 11 11 10 9
6 4 2 3 3 2 2 2 2 2 2 1 1 1 2 3 3 3 3 2 3 5 6 8 10 10 11 14 14 14 13 13 13 13 12 12 12 12 12 12 12 11 11
6 5 4 3 3 2 3 3 3 2 2 2 2 1 1 1 2 3 3 3 4 3 3 6 8 9 9 9 12 15 14 13 13 13 13 12 12 12 12 12 12 12 11
6 3 4 4 4 4 4 4 4 4 3 3 3 3 2 2 1 2 2 2 2 3 2 3 6 8 9 9 9 13 15 15 14 13 13 13 13 13 13 12 12 12 12
4 5 4 4 3 3 4 4 4 3 3 3 3 3 3 1 1 1 1 2 3 3 3 4 3 5 8 8 9 10 14 15 14 14 14 14 14 13 13 13 13 12 12
5 5 4 4 4 3 3 3 2 3 3 3 3 2 2 2 3 2 2 1 2 3 3 3 3 4 7 9 9 10 14 15 15 14 14 14 14 14 13 13 13 12 12
5 5 5 4 4 3 3 3 3 4 3 3 2 2 2 2 3 2 2 2 2 2 3 3 3 3 5 8 10 11 14 15 16 15 15 15 15 14 14 13 12 12 12
4 4 5 4 4 4 3 3 4 3 3 3 3 3 2 3 2 2 2 2 2 2 2 3 4 4 4 5 7 11 13 15 16 16 16 15 15 15 14 14 13 12 12
3 4 5 5 5 5 5 4 4 3 3 4 4 3 2 3 2 2 2 2 2 3 3 4 2 3 4 5 6 9 10 14 15 16 16 16 15 15 15 14 13 12 11
3 4 5 5 5 5 4 4 3 3 3 4 4 3 3 3 3 3 3 3 3 3 4 4 3 3 4 5 7 8 7 11 15 16 16 17 16 15 15 14 14 13 12
1 3 4 4 4 4 4 3 3 3 3 3 3 3 3 3 3 2 2 3 3 4 3 2 3 2 2 3 6 6 6 10 14 16 16 16 16 16 16 15 15 14 13
2 2 3 3 3 3 3 3 3 3 3 3 3 3 3 3 2 3 2 3 3 3 4 3 2 2 2 3 3 5 6 7 9 14 16 16 15 15 15 15 15 14 14
3 3 3 3 4 4 3 3 4 3 3 4 3 3 4 3 3 3 3 4 4 4 4 5 3 2 3 3 4 4 5 5 5 10 13 14 15 15 14 14 14 14 13
3 3 3 4 4 4 4 4 4 3 3 4 4 4 4 3 3 3 4 4 4 4 3 4 4 3 3 4 3 4 5 3 4 6 10 12 13 14 14 14 13 13 13
4 4 3 3 3 3 4 3 4 4 4 4 4 4 4 4 4 4 5 4 4 4 3 4 4 3 3 3 3 3 3 3 3 4 5 8 11 13 13 14 14 14 13
5 4 3 3 3 3 3 2 3 4 3 4 3 4 4 4 5 4 5 3 4 4 4 4 4 3 3 2 3 3 4 3 3 3 2 4 5 6 8 11 13 13 14
4 4 4 4 4 4 2 2 2 3 3 4 4 4 5 5 5 6 6 5 4 5 4 4 4 4 4 4 3 4 3 3 3 2 3 3 4 4 6 8 12 14 15
4 4 4 4 4 3 2 1 2 3 4 4 4 4 6 5 3 3 5 7 7 8 7 5 5 5 5 3 3 4 4 5 4 3 2 4 3 4 4 7 12 15 15
4 4 4 4 3 3 3 2 3 4 4 4 5 5 4 2 3 3 4 4 5 5 6 6 6 6 5 4 5 6 5 4 4 3 3 3 3 3 3 4 9 13 15
4 4 4 4 3 3 2 2 3 4 4 5 4 4 3 2 2 2 3 4 5 5 6 6 7 7 7 7 6 3 3 3 4 3 2 2 2 2 2 3 6 12 14
3 3 3 3 3 2 2 2 3 4 4 3 3 2 2 2 2 2 3 4 5 5 5 5 5 6 6 6 7 5 4 4 3 3 2 2 2 2 2 2 2 5 9
Wind_Direction
138 139 145 160 178 163 170 185 164 167 178 171 183 184 166 151 138 138 156 166 171 178 184 189 192 194 194 195 197 200 203 205 207 206 206 205 205 207 203 202 204 206 209
134 133 143 158 176 172 174 171 165 162 178 164 185 204 178 176 173 150 164 175 179 183 186 189 193 195 197 197 198 200 203 205 207 205 205 208 209 206 209 211 214 217 220
143 148 153 171 189 182 154 156 168 163 180 189 194 209 205 183 180 166 171 176 181 188 191 193 196 197 199 201 201 203 205 208 209 207 207 208 207 207 208 211 214 218 221
154 170 167 179 178 175 170 173 190 176 174 203 200 216 204 192 178 182 186 182 180 186 193 198 199 200 201 203 205 206 207 208 211 210 209 209 207 207 210 213 216 218 222
173 184 181 158 179 184 176 197 166 169 165 193 214 215 215 194 188 193 187 186 184 183 187 195 200 201 202 204 206 207 207 207 209 210 210 212 211 211 211 213 214 214 217
183 189 175 175 191 184 158 142 126 141 181 211 247 255 245 219 198 197 198 194 185 188 192 190 191 202 206 207 208 207 208 209 209 211 213 215 213 210 209 211 211 212 214
184 192 190 178 198 187 169 179 170 180 208 197 209 286 270 240 197 194 197 203 185 185 187 184 187 190 195 207 210 209 210 211 211 212 214 216 216 214 212 212 211 212 213
183 194 193 196 189 188 187 197 193 195 217 202 194 207 256 293 246 216 190 198 197 178 186 191 185 185 187 186 203 209 210 209 211 213 214 215 216 216 216 213 212 214 215
186 193 179 200 199 201 198 205 202 201 217 220 210 204 209 211 211 235 218 202 184 181 199 189 187 192 189 188 190 202 207 211 214 215 216 216 215 215 215 217 217 217 219
187 183 188 200 200 202 195 204 200 210 213 226 226 224 228 207 192 222 256 209 194 203 211 219 196 197 189 185 189 189 200 208 214 217 218 217 215 215 216 219 221 222 223
186 183 182 196 204 205 201 207 197 210 217 227 227 213 219 226 221 210 234 238 220 224 208 211 208 195 196 191 186 190 194 201 208 215 218 218 216 216 218 220 223 226 228
187 188 186 194 207 214 214 201 213 211 224 233 242 233 219 214 219 215 227 232 238 232 210 218 210 206 202 194 195 195 196 199 206 211 215 217 217 217 217 219 223 227 229
182 190 189 187 211 213 211 212 213 215 222 230 239 246 242 246 231 222 206 235 252 249 232 230 215 197 203 188 186 190 197 200 207 210 212 215 216 217 217 219 222 225 226
183 173 177 191 209 213 217 217 215 216 225 234 238 236 252 256 247 226 219 222 240 245 235 241 225 201 189 184 181 189 201 202 207 209 210 213 215 216 215 217 219 221 222
200 165 177 187 205 210 224 216 217 221 215 221 236 230 244 247 252 248 230 216 219 244 249 234 230 217 184 176 185 195 200 206 208 208 210 212 213 212 212 214 215 217 221
219 172 178 181 205 206 212 227 220 228 221 226 230 231 247 261 262 259 251 250 234 239 252 235 239 234 215 202 200 199 210 211 208 208 209 210 212 212 212 214 215 216 220
211 198 192 194 204 218 216 217 226 223 229 237 238 223 230 253 272 270 259 254 253 249 256 263 253 237 232 217 220 223 228 216 212 210 211 211 210 211 212 214 216 217 218
206 208 203 205 216 216 218 217 229 227 230 239 241 242 239 243 252 272 278 268 260 248 239 253 258 257 255 224 215 225 227 227 208 208 207 209 209 211 212 212 212 211 210
204 211 212 212 218 218 214 223 228 228 225 236 236 237 243 247 244 258 266 270 271 267 249 249 257 248 252 239 224 237 241 228 232 214 204 208 207 209 211 208 206 203 203
195 205 209 216 218 216 213 216 227 234 232 238 241 241 242 245 246 255 257 262 272 276 267 255 256 255 254 244 222 234 247 232 237 233 205 205 204 209 210 206 205 203 203
200 199 205 214 221 224 231 224 232 237 240 243 241 240 240 238 238 244 256 260 266 269 266 260 256 263 271 265 245 246 253 247 241 229 205 204 193 198 203 207 209 207 204
200 199 207 218 222 229 225 220 228 251 251 249 250 246 242 234 234 231 242 251 250 252 260 264 265 263 263 268 264 256 252 259 259 223 214 231 203 205 201 205 205 205 205
202 208 215 221 214 207 198 194 230 241 251 253 255 253 258 248 226 244 251 251 248 246 240 245 261 263 259 255 256 264 256 247 252 238 234 245 226 223 211 208 197 199 201
205 212 219 219 207 214 194 201 238 239 252 254 256 251 247 274 273 275 270 262 257 251 241 239 248 258 262 253 241 245 253 257 245 233 218 241 232 237 231 199 198 194 197
213 220 218 213 218 220 185 194 248 248 250 255 259 260 241 234 277 302 274 271 271 274 256 246 244 250 249 251 249 251 252 248 261 251 225 225 232 240 232 219 204 196 195
222 227 224 213 210 204 178 185 257 257 260 262 255 244 245 222 242 254 262 265 265 272 280 269 256 251 243 236 227 222 233 243 254 256 226 212 229 226 244 236 201 195 204
Height
1539 1541 1543 1544 1546 1548 1549 1551 1552 1553 1555 1556 1557 1558 1559 1559 1560 1561 1561 1562 1563 1564 1564 1565 1566 1567 1568 1569 1570 1571 1572 1573 1574 1574 1575 1576 1577 1578 1579 1580 1581 1582 1582
1539 1541 1543 1545 1546 1548 1549 1551 1552 1553 1555 1556 1556 1557 1558 1559 1560 1560 1561 1561 1562 1563 1564 1564 1565 1566 1567 1568 1569 1570 1571 1571 1572 1573 1574 1575 1575 1576 1577 1578 1579 1580 1581
1540 1541 1543 1545 1546 1548 1549 1550 1552 1553 1554 1555 1555 1556 1557 1558 1559 1559 1559 1560 1561 1562 1562 1563 1564 1565 1565 1566 1567 1568 1569 1570 1571 1572 1572 1573 1574 1575 1576 1577 1577 1578 1579
1540 1541 1543 1545 1546 1548 1549 1550 1551 1552 1553 1554 1555 1555 1556 1557 1558 1558 1558 1559 1559 1560 1561 1562 1562 1563 1564 1565 1565 1566 1567 1568 1569 1570 1570 1571 1572 1573 1573 1574 1575 1576 1576
1540 1541 1543 1545 1546 1547 1549 1550 1550 1551 1552 1553 1554 1554 1555 1555 1556 1557 1557 1558 1558 1559 1559 1560 1561 1561 1562 1562 1563 1564 1565 1566 1567 1567 1568 1569 1570 1570 1571 1572 1573 1573 1574
1540 1541 1542 1544 1545 1547 1548 1549 1549 1550 1551 1552 1553 1554 1554 1554 1555 1555 1556 1557 1557 1557 1558 1558 1559 1559 1560 1560 1561 1562 1563 1564 1564 1565 1566 1567 1567 1568 1569 1569 1570 1571 1571
1539 1540 1542 1543 1544 1545 1546 1547 1548 1549 1550 1551 1552 1552 1552 1553 1553 1554 1554 1555 1556 1556 1557 1556 1556 1557 1557 1558 1559 1560 1560 1561 1562 1563 1564 1564 1565 1566 1566 1567 1567 1568 1569
1538 1540 1540 1542 1543 1544 1544 1545 1546 1547 1548 1549 1550 1551 1551 1552 1552 1553 1553 1554 1554 1554 1554 1555 1555 1555 1555 1556 1556 1557 1558 1559 1559 1560 1561 1562 1562 1563 1564 1564 1565 1565 1566
1537 1538 1539 1540 1541 1542 1542 1544 1545 1545 1546 1548 1549 1550 1550 1549 1550 1551 1551 1552 1552 1552 1552 1553 1553 1553 1554 1554 1554 1555 1555 1556 1557 1557 1558 1559 1559 1560 1561 1561 1562 1563 1563
1536 1537 1538 1539 1539 1540 1541 1542 1543 1544 1544 1545 1546 1547 1548 1548 1548 1549 1549 1549 1550 1550 1550 1551 1551 1551 1551 1551 1552 1552 1553 1553 1554 1554 1555 1556 1556 1557 1558 1559 1559 1560 1560
1533 1534 1535 1536 1537 1538 1539 1540 1541 1542 1542 1543 1544 1544 1544 1545 1546 1547 1547 1547 1548 1548 1548 1548 1549 1549 1549 1549 1549 1549 1550 1550 1551 1551 1552 1553 1553 1554 1555 1556 1556 1557 1557
1531 1532 1533 1534 1535 1536 1537 1537 1538 1539 1539 1540 1541 1542 1542 1543 1543 1544 1544 1544 1545 1546 1546 1546 1546 1547 1547 1547 1547 1546 1547 1547 1548 1548 1549 1549 1550 1551 1551 1552 1553 1553 1554
1529 1530 1531 1532 1533 1534 1535 1535 1536 1536 1537 1537 1538 1539 1540 1540 1541 1541 1541 1542 1542 1543 1543 1543 1544 1544 1544 1544 1544 1544 1544 1544 1544 1545 1545 1545 1546 1547 1548 1549 1549 1550 1551
1527 1528 1529 1529 1530 1531 1532 1533 1533 1534 1534 1534 1535 1536 1536 1537 1538 1538 1539 1539 1540 1540 1540 1540 1540 1541 1541 1541 1541 1541 1541 1540 1541 1541 1541 1542 1543 1543 1544 1545 1546 1546 1547
1525 1526 1526 1527 1528 1529 1530 1530 1530 1531 1532 1532 1532 1533 1533 1534 1534 1535 1536 1537 1538 1537 1537 1537 1537 1538 1538 1537 1537 1537 1537 1537 1537 1537 1538 1538 1539 1539 1540 1541 1542 1543 1543
1522 1523 1524 1524 1525 1526 1527 1527 1528 1528 1529 1529 1530 1530 1530 1531 1531 1532 1532 1533 1534 1535 1534 1533 1534 1535 1535 1534 1534 1534 1534 1534 1533 1534 1534 1534 1535 1535 1536 1537 1538 1539 1539
1520 1520 1521 1522 1522 1522 1523 1524 1525 1525 1526 1526 1527 1527 1527 1528 1528 1529 1530 1530 1531 1531 1530 1530 1531 1531 1531 1531 1531 1530 1530 1530 1530 1530 1530 1530 1531 1531 1532 1533 1534 1534 1535
1516 1517 1518 1518 1519 1520 1520 1521 1521 1522 1523 1523 1524 1524 1524 1525 1525 1526 1526 1527 1527 1528 1528 1526 1527 1527 1527 1527 1527 1527 1527 1526 1526 1526 1526 1526 1527 1527 1528 1528 1529 1530 1531
1513 1514 1514 1515 1516 1517 1517 1517 1518 1519 1519 1520 1521 1521 1521 1521 1522 1522 1523 1523 1524 1524 1524 1524 1523 1523 1523 1524 1523 1523 1523 1523 1523 1522 1522 1523 1523 1523 1524 1525 1525 1526 1526
1510 1511 1512 1512 1513 1513 1514 1514 1515 1515 1516 1516 1517 1517 1517 1518 1518 1518 1519 1519 1520 1520 1520 1520 1520 1519 1519 1519 1519 1519 1519 1519 1519 1519 1519 1519 1519 1520 1520 1521 1521 1522 1522
1507 1508 1508 1509 1510 1511 1511 1511 1511 1512 1512 1512 1513 1513 1513 1514 1514 1515 1515 1515 1516 1516 1516 1516 1516 1515 1515 1515 1515 1515 1515 1515 1515 1515 1515 1515 1515 1515 1516 1516 1517 1518 1518
1503 1504 1505 1506 1507 1508 1508 1508 1508 1508 1508 1508 1509 1509 1510 1510 1511 1511 1511 1511 1512 1512 1512 1512 1512 1511 1511 1511 1511 1511 1511 1511 1511 1512 1511 1511 1511 1511 1511 1512 1513 1514 1514
1500 1501 1501 1502 1503 1504 1504 1505 1505 1505 1505 1505 1505 1505 1506 1506 1507 1507 1507 1507 1507 1508 1508 1508 1507 1507 1507 1507 1507 1506 1507 1507 1506 1507 1507 1506 1507 1507 1508 1508 1508 1509 1510
1496 1497 1498 1499 1499 1500 1500 1501 1501 1502 1501 1501 1501 1502 1501 1502 1502 1503 1503 1503 1503 1503 1504 1504 1504 1503 1503 1503 1503 1503 1502 1502 1502 1503 1503 1503 1503 1503 1503 1504 1504 1505 1506
1493 1494 1495 1495 1496 1496 1497 1497 1498 1498 1497 1497 1498 1498 1498 1498 1498 1498 1498 1498 1498 1499 1499 1499 1499 1499 1499 1499 1499 1499 1498 1498 1498 1498 1499 1499 1498 1499 1499 1499 1500 1501 1502
1490 1491 1491 1492 1492 1492 1493 1494 1494 1494 1493 1493 1493 1493 1493 1493 1494 1494 1494 1494 1494 1494 1495 1494 1494 1494 1494 1494 1494 1494 1494 1494 1494 1494 1494 1495 1495 1495 1495 1496 1496 1497 1497